This demonstration page uses our WeatherBlox Daily Observations layout. Learn more.

Hourly Observations for August 28, 2020

Temp ( °F °C ) Dew Point ( °F °C ) Humidity (%) Winds ( mph kmh ) Pressure ( in mb ) Visibility ( mi km ) Precip ( " mm )
12:15 am 00:15 Clear 79 26 64 18 61 61 Calm 29.87 1012 10 16.0934 0 0
12:35 am 00:35 Clear 79 26 64 18 61 61 Calm 29.88 1012 10 16.0934 0 0
12:55 am 00:55 Clear 79 26 64 18 61 61 N 3 6 29.89 1012 10 16.0934 0 0
1:15 am 01:15 Clear 77 25 64 18 65 65 Calm 29.9 1013 10 16.0934 0 0
1:35 am 01:35 Clear 77 25 64 18 65 65 N 7 11 29.89 1012 10 16.0934 0 0
1:55 am 01:55 Clear 77 25 64 18 65 65 ENE 6 9 29.89 1012 10 16.0934 0 0
2:15 am 02:15 Clear 75 24 66 19 74 74 Calm 29.89 1012 10 16.0934 0 0
2:35 am 02:35 Clear 73 23 66 19 78 78 Calm 29.89 1012 10 16.0934 0 0
2:55 am 02:55 Clear 73 23 66 19 78 78 N 3 6 29.89 1012 10 16.0934 0 0
3:15 am 03:15 Clear 72 22 68 20 88 88 Calm 29.9 1012 10 16.0934 0 0
3:35 am 03:35 Clear 72 22 68 20 88 88 WNW 3 6 29.89 1012 10 16.0934 0 0
3:55 am 03:55 Clear 72 22 68 20 88 88 Calm 29.89 1012 10 16.0934 0 0
4:15 am 04:15 Clear 72 22 68 20 88 88 Calm 29.89 1012 10 16.0934 0 0
4:35 am 04:35 Clear 72 22 68 20 88 88 WSW 3 6 29.89 1012 10 16.0934 0 0
4:55 am 04:55 Clear 72 22 68 20 88 88 W 6 9 29.89 1012 10 16.0934 0 0
5:15 am 05:15 Clear 70 21 68 20 94 94 WSW 6 9 29.9 1013 10 16.0934 0 0
5:35 am 05:35 Mostly Cloudy 72 22 68 20 88 88 W 7 11 29.9 1012 10 16.0934 0 0
5:55 am 05:55 Partly Cloudy 73 23 68 20 83 83 WSW 6 9 29.9 1012 10 16.0934 0 0
6:15 am 06:15 Clear 72 22 68 20 88 88 W 6 9 29.9 1012 10 16.0934 0 0
6:35 am 06:35 Clear 72 22 68 20 88 88 W 7 11 29.9 1012 10 16.0934 0 0
6:55 am 06:55 Sunny 73 23 68 20 83 83 W 6 9 29.91 1013 10 16.0934 0 0
7:15 am 07:15 Sunny 73 23 70 21 89 89 WNW 8 13 29.91 1013 10 16.0934 0 0
7:35 am 07:35 Sunny 75 24 70 21 83 83 WNW 7 11 29.91 1013 10 16.0934 0 0
7:55 am 07:55 Sunny 77 25 70 21 79 79 WSW 3 6 29.91 1013 10 16.0934 0 0
8:15 am 08:15 Sunny 77 25 70 21 79 79 W 6 9 29.91 1013 10 16.0934 0 0
8:35 am 08:35 Sunny 79 26 70 21 74 74 W 5 7 29.91 1013 10 16.0934 0 0
8:55 am 08:55 Sunny 79 26 72 22 79 79 W 5 7 29.91 1013 10 16.0934 0 0
9:15 am 09:15 Sunny 81 27 72 22 74 74 W 7 11 29.92 1013 10 16.0934 0 0
9:35 am 09:35 Sunny 81 27 72 22 74 74 WSW 3 6 29.91 1013 10 16.0934 0 0
9:55 am 09:55 Sunny 82 28 72 22 70 70 WSW 6 9 29.92 1013 10 16.0934 0 0
10:15 am 10:15 Sunny 84 29 72 22 66 66 SW 3 6 29.92 1013 10 16.0934 0 0
10:35 am 10:35 Sunny 86 30 73 23 66 66 W 6 9 29.92 1013 10 16.0934 0 0
10:55 am 10:55 Sunny 86 30 73 23 66 66 W 12 19 29.92 1013 10 16.0934 0 0
11:15 am 11:15 Sunny 86 30 72 22 62 62 NW 7 11 29.92 1013 10 16.0934 0 0
11:35 am 11:35 Partly Cloudy 86 30 72 22 62 62 NNW 3 6 29.91 1013 10 16.0934 0 0
11:55 am 11:55 Partly Cloudy 88 31 73 23 62 62 W 7 11 29.91 1013 10 16.0934 0 0
12:15 pm 12:15 Partly Cloudy 86 30 72 22 62 62 W 7 11 29.91 1013 10 16.0934 0 0
12:35 pm 12:35 Partly Cloudy 88 31 72 22 59 59 WSW 7 11 29.9 1012 10 16.0934 0 0
12:55 pm 12:55 Partly Cloudy 86 30 72 22 62 62 W 6 9 29.9 1012 10 16.0934 0 0
1:15 pm 13:15 Partly Cloudy 86 30 72 22 62 62 NW 3 6 29.9 1012 10 16.0934 0 0
1:35 pm 13:35 Sunny 86 30 72 22 62 62 WSW 5 7 29.9 1012 10 16.0934 0 0
1:55 pm 13:55 Sunny 88 31 73 23 62 62 SSW 7 11 29.89 1012 10 16.0934 0 0
2:15 pm 14:15 Sunny 88 31 73 23 62 62 SW 6 9 29.87 1011 10 16.0934 0 0
2:35 pm 14:35 Sunny 88 31 73 23 62 62 WSW 5 7 29.87 1011 10 16.0934 0 0
2:55 pm 14:55 Sunny 88 31 75 24 66 66 WSW 6 9 29.86 1011 10 16.0934 0 0
3:15 pm 15:15 Sunny 90 32 73 23 59 59 WSW 6 9 29.86 1011 10 16.0934 0 0
3:35 pm 15:35 Sunny 90 32 73 23 59 59 WSW 3 6 29.84 1010 N/A 0 0
3:55 pm 15:55 Partly Cloudy 90 32 73 23 59 59 SSW 6 9 29.84 1010 10 16.0934 0 0
4:15 pm 16:15 Sunny 90 32 73 23 59 59 SSW 5 7 29.83 1010 10 16.0934 0 0
4:35 pm 16:35 Mostly Cloudy 90 32 75 24 63 63 SW 3 6 29.83 1010 10 16.0934 0 0
4:55 pm 16:55 Cloudy 81 27 68 20 66 66 NNE 15 24 29.85 1011 10 16.0934 0 0
5:15 pm 17:15 Cloudy with Thunderstorms 73 23 72 22 94 94 ESE 5 7 29.88 1012 0.75 1.207005 0.29 7.366
5:35 pm 17:35 Cloudy 72 22 72 22 100 100 NE 6 9 29.86 1011 10 16.0934 0.36 9.144
5:55 pm 17:55 Mostly Cloudy with Nearby Thunderstorms 72 22 72 22 100 100 Calm 29.87 1011 10 16.0934 0.36 9.144
6:15 pm 18:15 Mostly Cloudy with Nearby Thunderstorms 72 22 72 22 100 100 SW 3 6 29.88 1012 7 11.26538 0.02 0.508
6:35 pm 18:35 Mostly Cloudy with Thunderstorms 70 21 70 21 100 100 S 7 11 29.88 1012 10 16.0934 0.02 0.508
6:55 pm 18:55 Mostly Cloudy 70 21 70 21 100 100 ESE 5 7 29.86 1011 10 16.0934 0.02 0.508
7:15 pm 19:15 Mostly Cloudy 70 21 70 21 100 100 Calm 29.87 1012 10 16.0934 0.02 0.508
7:35 pm 19:35 Partly Cloudy 70 21 70 21 100 100 Calm 29.86 1011 10 16.0934 0.02 0.508
7:55 pm 19:55 Partly Cloudy 70 21 70 21 100 100 SW 6 9 29.87 1012 10 16.0934 0.02 0.508
8:15 pm 20:15 Partly Cloudy 70 21 70 21 100 100 W 6 9 29.88 1012 10 16.0934 0.01 0.254
8:35 pm 20:35 Mostly Cloudy with Nearby Thunderstorms 68 20 68 20 100 100 S 3 6 29.87 1012 7 11.26538 0.04 1.016
8:55 pm 20:55 Partly Cloudy 68 20 68 20 100 100 S 6 9 29.87 1012 10 16.0934 0.05 1.27
9:15 pm 21:15 Partly Cloudy 68 20 68 20 100 100 Calm 29.87 1012 10 16.0934 0.02 0.508
9:35 pm 21:35 Partly Cloudy with Nearby Thunderstorms 68 20 68 20 100 100 Calm 29.86 1011 7 11.26538 0.06 1.524
9:55 pm 21:55 Partly Cloudy with Nearby Thunderstorms 68 20 68 20 100 100 S 3 6 29.87 1012 10 16.0934 0.07 1.778
10:15 pm 22:15 Mostly Cloudy with Nearby Thunderstorms 66 19 66 19 100 100 Calm 29.87 1012 10 16.0934 0.01 0.254
10:35 pm 22:35 Cloudy 68 20 68 20 100 100 Calm 29.85 1011 10 16.0934 0.02 0.508
10:55 pm 22:55 Cloudy 66 19 66 19 100 100 Calm 29.84 1011 10 16.0934 0.02 0.508
11:15 pm 23:15 Mostly Cloudy 66 19 66 19 100 100 Calm 29.85 1011 10 16.0934 0 0
11:35 pm 23:35 Cloudy 66 19 66 19 100 100 SSW 3 6 29.84 1011 10 16.0934 0 0
11:55 pm 23:55 Cloudy 64 18 64 18 100 100 SSW 7 11 29.86 1011 10 16.0934 0.01 0.254

Powered by AerisWeather